User: anonymous   Login
Location: Casco Volunteer Fire Department
(44.5576°N, 87.6146°W)
Time: 02:03:10
(UTC+00:00)
Language:

IRS-P3 - Orbit

View from above orbital plane
View from above orbital plane
View from above satellite
View from above satellite

Ground track
Ground track

The orbit is defined by the following mean orbital elements,

1 23827U          26073.57227755 +.00000000 +00000-0 +94503-4 0 00008
2 23827  99.0373  94.5216 0002986 193.6514 166.4583 14.23704699    04
Epoch (UTC): 14 March 2026 13:44:04
Eccentricity: 0.0002986
inclination: 99.0373°
perigee height: 811 km
apogee height: 815 km
right ascension of ascending node: 94.5216°
argument of perigee: 193.6514°
revolutions per day: 14.23704699
mean anomaly at epoch: 166.4583°

The dashed part of the orbit path shows where the satellite is in the earth's shadow,  

DLR